Location: Oberwangen
(47.4286°N, 8.9679°E)
Time: 10:49:00
(UTC+00:00)

Cosmos 1953 Rocket - Pass Details

Date: 30 October 2021
Orbit: 604 x 635 km, 82.5° (Epoch: 26 November)

Event Time Altitude Azimuth Distance (km) Brightness Sun altitude
Rises 16:49:32 0° 3° (N) 2,940 6.9 -7.2°
Reaches altitude 10° 16:52:26 10° 23° (NNE) 2,022 5.9 -7.7°
Maximum altitude 16:55:31 18° 67° (ENE) 1,546 5.0 -8.2°
Drops below altitude 10° 16:58:35 10° 111° (ESE) 2,000 5.7 -8.7°
Sets 17:01:25 0° 130° (SE) 2,895 6.6 -9.2°
